Location: Le Vaud
(46.4779°N, 6.2346°E)
Time: 20:52:46
(UTC+00:00)

STARLINK-1085 - Pass Details

Date: 18 February 2020
Orbit: 374 x 385 km, 53.0° (Epoch: 07 April)

Event Time Altitude Azimuth Distance (km) Brightness Sun altitude
Exits shadow 04:13:54 18° 130° (SE) 1,028 5.4 -24.9°
Drops below altitude 10° 04:15:58 10° 89° (E) 1,412 6.8 -24.5°
Enters shadow 05:12:05 -69° 239° (WSW) 12,321 10.4 -14.9°
Maximum altitude 05:49:18 68° 332° (NNW) 419 2.9 -8.5°
